Terminal Aerodrome Forecast
Issued by NWS

Home | Current Version | Previous Version | Text Only | Print | Product List | Glossary On
Versions: 1 2 3 4 5 6 7 8 9 10 11 12
000
FTUS45 KSLC 291120
TAFOGD
TAF
KOGD 291120Z 2912/3012 17008KT P6SM SCT080 SCT120
     FM291800 29006KT P6SM VCSH SCT070 BKN120
     FM300300 15007KT P6SM SCT070 BKN100
     FM300900 18007KT P6SM -SHRA SCT040 BKN070=

USA.gov is the U.S. government's official web portal to all federal, state and local government web resources and services.